This is the latest recevied weather packets stored in our database for station/object KC1IUC-13. If no packets are shown the sender has not sent any weather packets the latest 1 day(s).
| Time | Temp. | Humidity | Pressure | Rain* | Wind** | Luminosity | Snow |
|---|---|---|---|---|---|---|---|
| 1778027764 | 18.33° C | 62% | 1005.9 hPa | 0 mm | 0.45 m/s, 187° | 0 W/m² | - |
| 1778027224 | 18.89° C | 61% | 1005.9 hPa | 0 mm | 0.45 m/s, 187° | 0 W/m² | - |
| 1778026684 | 18.89° C | 61% | 1005.2 hPa | 0 mm | 0.45 m/s, 186° | 0 W/m² | - |
| 1778026144 | 18.89° C | 60% | 1004.9 hPa | 0 mm | 0.45 m/s, 185° | 0 W/m² | - |
| 1778025604 | 19.44° C | 60% | 1004.9 hPa | 0 mm | 0.45 m/s, 203° | 0 W/m² | - |
| 1778025244 | 19.44° C | 59% | 1005.2 hPa | 0 mm | 0.45 m/s, 224° | 1 W/m² | - |
| 1778024704 | 20° C | 59% | 1004.9 hPa | 0 mm | 0.45 m/s, 188° | 2 W/m² | - |
| 1778024164 | 20° C | 58% | 1005.2 hPa | 0 mm | 0.89 m/s, 182° | 2 W/m² | - |
| 1778023624 | 20° C | 58% | 1004.9 hPa | 0 mm | 0.45 m/s, 187° | 4 W/m² | - |
| 1778023084 | 20.56° C | 57% | 1004.9 hPa | 0 mm | 0.89 m/s, 196° | 8 W/m² | - |
| 1778022544 | 20.56° C | 57% | 1004.9 hPa | 0 mm | 0.89 m/s, 194° | 13 W/m² | - |
| 1778022004 | 21.11° C | 56% | 1004.6 hPa | 0 mm | 0.45 m/s, 189° | 19 W/m² | - |
| 1778021644 | 21.11° C | 56% | 1004.6 hPa | 0 mm | 0.89 m/s, 165° | 21 W/m² | - |
| 1778021104 | 21.11° C | 56% | 1004.2 hPa | 0 mm | 1.34 m/s, 182° | 22 W/m² | - |
| 1778020564 | 21.67° C | 55% | 1004.6 hPa | 0 mm | 1.34 m/s, 187° | 25 W/m² | - |
| 1778020024 | 22.22° C | 55% | 1003.9 hPa | 0 mm | 1.34 m/s, 186° | 26 W/m² | - |
| 1778019484 | 22.22° C | 54% | 1004.2 hPa | 0 mm | 0.89 m/s, 190° | 33 W/m² | - |
| 1778018944 | 22.78° C | 54% | 1004.6 hPa | 0 mm | 1.34 m/s, 188° | 30 W/m² | - |
| 1778018404 | 22.78° C | 53% | 1004.6 hPa | 0 mm | 0.89 m/s, 176° | 35 W/m² | - |
| 1778018044 | 22.78° C | 53% | 1004.6 hPa | 0 mm | 0.89 m/s, 186° | 37 W/m² | - |
| 1778017504 | 23.33° C | 52% | 1004.2 hPa | 0 mm | 1.34 m/s, 183° | 39 W/m² | - |
| 1778016964 | 23.33° C | 52% | 1004.2 hPa | 0 mm | 1.34 m/s, 184° | 43 W/m² | - |
| 1778016424 | 23.89° C | 51% | 1003.9 hPa | 0 mm | 1.34 m/s, 186° | 46 W/m² | - |
| 1778015884 | 23.89° C | 51% | 1003.9 hPa | 0 mm | 1.34 m/s, 182° | 56 W/m² | - |
| 1778015344 | 24.44° C | 50% | 1004.2 hPa | 0 mm | 1.34 m/s, 182° | 64 W/m² | - |
* Rain latest hour (hover to see other rain measurements)
** Current wind speed in m/s (hover to see current wind gust speed)